Regional Weather Roundup
Issued by NWS Cleveland, OH

Home | Current Version | Previous Version | Text Only | Print | Product List | Glossary Off
Versions: 1 2 3 4 5 6 7 8 9 10 11 12 13 14 15 16 17 18 19 20 21 22 23 24 25 26 27 28 29 30 31 32 33 34 35 36 37 38 39 40 41 42 43 44 45 46 47 48 49 50

000
ASUS41 KCLE 042310
RWRCLE
OHIO REGIONAL WEATHER ROUNDUP
NATIONAL WEATHER SERVICE WILMINGTON, OH
700 PM EDT TUE AUG 04 2015

NOTE: "FAIR" INDICATES FEW OR NO CLOUDS BELOW 12,000 FEET WITH NO
SIGNIFICANT WEATHER AND/OR OBSTRUCTIONS TO VISIBILITY.

OHZ001>008-015>018-024>027-034-035-043-044-050000-
   NORTHWEST OHIO

CITY           SKY/WX    TMP DP  RH WIND       PRES   REMARKS
DEFIANCE       PTSUNNY   78  58  49 NW6       29.95F
FINDLAY        MOSUNNY   78  58  49 W8        29.94F
TOLEDO EXPRESS MOSUNNY   78  54  43 W10       29.94S
TOLEDO EXEC    MOSUNNY   80  53  39 W13       29.94S
LIMA           MOSUNNY   76  58  53 W6        29.96F
$$

OHZ009>014-019>023-028>033-038-089-050000-
   NORTHEAST OHIO

CITY           SKY/WX    TMP DP  RH WIND       PRES   REMARKS
CLE-HOPKINS    PTSUNNY   78  58  49 NW9       29.96R
CLE-LAKEFRONT  SUNNY     78  62  57 W9        29.92S
CUY CO. ARPT   PTSUNNY   79  61  53 W14       29.94S
LORAIN-ELYRIA  PTSUNNY   76  60  57 NW6       29.95S
ASHTABULA      SUNNY     77  54  44 W10       29.94S
AKRON-CANTON   MOSUNNY   80  52  37 W10       29.96R
WOOSTER        MOSUNNY   78  54  43 NW10      29.97S
MANSFIELD      MOSUNNY   76  56  49 W7        29.97S
YOUNGSTOWN     MOSUNNY   79  51  37 W9        29.94F
$$

OHZ042-051>053-060>062-070>072-077>081-050000-
  SOUTHWEST OHIO

CITY           SKY/WX    TMP DP  RH WIND       PRES   REMARKS
CINC-COVINGTON PTSUNNY   80  60  50 NW8       29.99R
CINC-LUNKEN    PTSUNNY   80  61  52 W9        29.98R
HAMILTON       PTSUNNY   79  60  52 W5        29.98S
DAYTON         PTSUNNY   78  60  53 NW7       29.98F
WRIGHT-PAT AFB MOSUNNY   80  56  43 W8        29.97S
DAYTON GENERAL MOSUNNY   79  55  43 NW7       29.97F
WILMINGTON     PTSUNNY   79  55  43 W10       29.98S
$$

OHZ036-037-039>041-045>050-054>059-063>069-073>076-082>088-050000-
  CENTRAL AND SOUTHEAST OHIO

CITY           SKY/WX    TMP DP  RH WIND       PRES   REMARKS
COLUMBUS       PTSUNNY   80  55  42 NW12      29.95S
OSU AIRPORT    MOSUNNY   78  56  46 W10       29.96S
BOLTON FIELD   SUNNY     79  61  53 NW5       29.97S
RICKENBACK AFB PTSUNNY   79  60  50 W6        29.95F
NEWARK         MOSUNNY   80  57  45 NW5       29.95F
MARION         MOSUNNY   78  56  46 W6        29.97S
LANCASTER      MOSUNNY   80  58  46 W5        29.96F
ZANESVILLE     SUNNY     80  53  39 W6        29.96S
NEW PHILLY     MOSUNNY   79  59  50 CALM      29.96S
$$



USA.gov is the U.S. government's official web portal to all federal, state and local government web resources and services.